OMD187 KLAX-KGYR

Flight info

Callsign OMD187
Flight time 0h 54m
Altitude 39000
Route DOTSS2 CNERY BLH BXK
Aircraft A20N/M-SDE2E3FGHIRWXY/LB1

Departure

Time 2026-05-05 02:24
Airport Los Angeles International Airport (KLAX)

Arrival

Time 2026-05-05 03:18
Airport Phoenix Goodyear Airport (KGYR)
Time Latitude Longitude Altitude Speed Heading
2026-05-05 01:58 33.94166 -118.40392 127 ft 0 kts 262°
2026-05-05 02:08 33.94167 -118.40382 126 ft 2 kts 262°
2026-05-05 02:08 33.94169 -118.40363 126 ft 2 kts 262°
2026-05-05 02:08 33.94171 -118.40347 126 ft 1 kts 262°
2026-05-05 02:09 33.94172 -118.40337 126 ft 1 kts 234°
2026-05-05 02:09 33.94183 -118.40330 126 ft 0 kts 180°
2026-05-05 02:09 33.94188 -118.40331 126 ft 0 kts 169°
2026-05-05 02:09 33.94191 -118.40331 126 ft 0 kts 173°
2026-05-05 02:14 33.94187 -118.40331 126 ft 1 kts 173°
2026-05-05 02:15 33.94172 -118.40328 126 ft 2 kts 175°
2026-05-05 02:15 33.94151 -118.40327 126 ft 2 kts 175°
2026-05-05 02:15 33.94128 -118.40324 126 ft 4 kts 174°
2026-05-05 02:15 33.94120 -118.40322 126 ft 0 kts 173°
2026-05-05 02:17 33.94083 -118.40318 126 ft 11 kts 174°
2026-05-05 02:18 33.93980 -118.40302 126 ft 17 kts 173°
2026-05-05 02:18 33.93889 -118.40286 126 ft 12 kts 172°
2026-05-05 02:18 33.93850 -118.40261 126 ft 4 kts 84°
2026-05-05 02:18 33.93855 -118.40207 125 ft 8 kts 83°
2026-05-05 02:19 33.93864 -118.40117 123 ft 13 kts 83°
2026-05-05 02:19 33.93876 -118.39993 122 ft 16 kts 83°
2026-05-05 02:19 33.93891 -118.39841 119 ft 19 kts 82°
2026-05-05 02:19 33.93909 -118.39665 116 ft 22 kts 84°
2026-05-05 02:20 33.93932 -118.39476 113 ft 23 kts 82°
2026-05-05 02:20 33.93949 -118.39276 111 ft 24 kts 85°
2026-05-05 02:20 33.93972 -118.39069 109 ft 24 kts 84°
2026-05-05 02:20 33.93992 -118.38864 108 ft 25 kts 83°
2026-05-05 02:21 33.94014 -118.38656 107 ft 25 kts 83°
2026-05-05 02:21 33.94036 -118.38446 106 ft 25 kts 83°
2026-05-05 02:21 33.94054 -118.38235 105 ft 25 kts 86°
2026-05-05 02:21 33.94069 -118.38067 104 ft 11 kts 82°
2026-05-05 02:22 33.94040 -118.38003 104 ft 9 kts 164°
2026-05-05 02:22 33.93986 -118.38034 104 ft 8 kts 245°
2026-05-05 02:22 33.93983 -118.38049 104 ft 0 kts 260°
2026-05-05 02:23 33.93979 -118.38073 104 ft 23 kts 261°
2026-05-05 02:23 33.93911 -118.38741 110 ft 128 kts 262°
2026-05-05 02:24 33.93788 -118.39851 910 ft 140 kts 262°
2026-05-05 02:24 33.93657 -118.40995 1901 ft 146 kts 261°
2026-05-05 02:24 33.93507 -118.42237 2696 ft 163 kts 262°
2026-05-05 02:24 33.93351 -118.43753 3032 ft 207 kts 263°
2026-05-05 02:25 33.93033 -118.45578 2970 ft 236 kts 250°
2026-05-05 02:25 33.92192 -118.47386 3168 ft 261 kts 233°
2026-05-05 02:25 33.90910 -118.49086 4009 ft 285 kts 230°
2026-05-05 02:25 33.89683 -118.50856 5578 ft 280 kts 232°
2026-05-05 02:26 33.88497 -118.52610 7202 ft 272 kts 232°
2026-05-05 02:26 33.87338 -118.54311 8776 ft 264 kts 229°
2026-05-05 02:26 33.85875 -118.55535 9998 ft 269 kts 204°
2026-05-05 02:26 33.84020 -118.55911 11154 ft 278 kts 180°
2026-05-05 02:27 33.82121 -118.55505 12241 ft 285 kts 171°
2026-05-05 02:27 33.80180 -118.54954 13296 ft 290 kts 171°
2026-05-05 02:27 33.78223 -118.54398 14323 ft 295 kts 171°
2026-05-05 02:27 33.76212 -118.53843 15387 ft 299 kts 171°
2026-05-05 02:28 33.74192 -118.53288 16420 ft 302 kts 172°
2026-05-05 02:28 33.72148 -118.52716 17438 ft 306 kts 169°
2026-05-05 02:28 33.70235 -118.51539 18385 ft 321 kts 144°
2026-05-05 02:28 33.68838 -118.49388 19332 ft 337 kts 120°
2026-05-05 02:29 33.68010 -118.46733 20261 ft 344 kts 114°
2026-05-05 02:29 33.67263 -118.44020 21116 ft 351 kts 113°
2026-05-05 02:29 33.66486 -118.41237 21941 ft 357 kts 115°
2026-05-05 02:29 33.65666 -118.38392 22759 ft 363 kts 115°
2026-05-05 02:30 33.64904 -118.35510 23554 ft 373 kts 110°
2026-05-05 02:30 33.64465 -118.32476 24294 ft 383 kts 101°
2026-05-05 02:30 33.64362 -118.29252 25005 ft 393 kts 96°
2026-05-05 02:30 33.64385 -118.25988 25653 ft 400 kts 96°
2026-05-05 02:31 33.64423 -118.22620 26305 ft 406 kts 97°
2026-05-05 02:31 33.64455 -118.19219 26914 ft 413 kts 98°
2026-05-05 02:31 33.64471 -118.15739 27556 ft 417 kts 99°
2026-05-05 02:31 33.64475 -118.12272 28141 ft 423 kts 100°
2026-05-05 02:32 33.64475 -118.08710 28700 ft 428 kts 101°
2026-05-05 02:32 33.64470 -118.05126 29191 ft 435 kts 101°
2026-05-05 02:32 33.64462 -118.01466 29705 ft 440 kts 102°
2026-05-05 02:32 33.64456 -117.97845 30189 ft 444 kts 103°
2026-05-05 02:33 33.64445 -117.94188 30650 ft 448 kts 102°
2026-05-05 02:33 33.64432 -117.90464 31069 ft 453 kts 102°
2026-05-05 02:33 33.64416 -117.86665 31439 ft 459 kts 103°
2026-05-05 02:33 33.64284 -117.82877 31850 ft 457 kts 107°
2026-05-05 02:34 33.63946 -117.79175 32324 ft 451 kts 112°
2026-05-05 02:34 33.63403 -117.75611 32683 ft 448 kts 116°
2026-05-05 02:34 33.62686 -117.72243 32992 ft 446 kts 120°
2026-05-05 02:34 33.61780 -117.68600 33530 ft 447 kts 121°
2026-05-05 02:35 33.60858 -117.64989 34057 ft 450 kts 120°
2026-05-05 02:35 33.59948 -117.61399 34484 ft 454 kts 120°
2026-05-05 02:35 33.59039 -117.57786 34952 ft 457 kts 119°
2026-05-05 02:35 33.58120 -117.54089 35470 ft 459 kts 119°
2026-05-05 02:36 33.57221 -117.50453 36061 ft 457 kts 118°
2026-05-05 02:36 33.56335 -117.46856 36653 ft 455 kts 118°
2026-05-05 02:36 33.55437 -117.43219 37174 ft 455 kts 118°
2026-05-05 02:36 33.54531 -117.39581 37620 ft 455 kts 118°
2026-05-05 02:37 33.53628 -117.35960 38058 ft 456 kts 118°
2026-05-05 02:37 33.52736 -117.32378 38503 ft 456 kts 118°
2026-05-05 02:37 33.51876 -117.28816 38911 ft 459 kts 116°
2026-05-05 02:37 33.51133 -117.25020 39037 ft 468 kts 111°
2026-05-05 02:38 33.50611 -117.21121 39036 ft 476 kts 106°
2026-05-05 02:38 33.50245 -117.13133 39031 ft 484 kts 99°
2026-05-05 02:39 33.50199 -117.05127 39027 ft 484 kts 99°
2026-05-05 02:39 33.50118 -116.97052 39023 ft 483 kts 99°
2026-05-05 02:40 33.50003 -116.89012 39022 ft 484 kts 100°
2026-05-05 02:40 33.49882 -116.80978 38995 ft 484 kts 99°
2026-05-05 02:41 33.49756 -116.72955 38998 ft 481 kts 100°
2026-05-05 02:41 33.49620 -116.64933 38989 ft 481 kts 99°
2026-05-05 02:42 33.49484 -116.56920 38985 ft 483 kts 100°
2026-05-05 02:42 33.49338 -116.48911 38985 ft 480 kts 100°
2026-05-05 02:43 33.49188 -116.40942 38974 ft 481 kts 99°
2026-05-05 02:43 33.49071 -116.32894 38970 ft 482 kts 100°
2026-05-05 02:44 33.48963 -116.24912 38954 ft 480 kts 100°
2026-05-05 02:44 33.48828 -116.16861 38948 ft 481 kts 100°
2026-05-05 02:45 33.48804 -116.08823 38926 ft 486 kts 95°
2026-05-05 02:45 33.49653 -116.00748 38917 ft 492 kts 84°
2026-05-05 02:46 33.51544 -115.92915 38908 ft 495 kts 75°
2026-05-05 02:46 33.53902 -115.85166 38901 ft 497 kts 75°
2026-05-05 02:47 33.56214 -115.77405 38886 ft 497 kts 75°
2026-05-05 02:47 33.58465 -115.69692 38906 ft 498 kts 76°
2026-05-05 02:48 33.60747 -115.61807 38911 ft 500 kts 76°
2026-05-05 02:48 33.62882 -115.53945 38913 ft 494 kts 83°
2026-05-05 02:49 33.64037 -115.45937 38907 ft 483 kts 95°
2026-05-05 02:49 33.64031 -115.37968 38899 ft 475 kts 107°
2026-05-05 02:50 33.62960 -115.30209 38910 ft 465 kts 118°
2026-05-05 02:50 33.61406 -115.22672 38902 ft 471 kts 115°
2026-05-05 02:51 33.60652 -115.14784 38903 ft 483 kts 105°
2026-05-05 02:51 33.60448 -115.06724 38909 ft 481 kts 105°
2026-05-05 02:51 33.60366 -115.02788 38557 ft 475 kts 105°
2026-05-05 02:52 33.60271 -114.98804 37362 ft 476 kts 106°
2026-05-05 02:52 33.60155 -114.94835 36207 ft 473 kts 106°
2026-05-05 02:52 33.60049 -114.90932 35725 ft 467 kts 107°
2026-05-05 02:52 33.59938 -114.87094 35153 ft 465 kts 106°
2026-05-05 02:53 33.59817 -114.83179 34492 ft 467 kts 106°
2026-05-05 02:53 33.59698 -114.79305 33792 ft 469 kts 106°
2026-05-05 02:53 33.59557 -114.75436 33114 ft 468 kts 108°
2026-05-05 02:53 33.59323 -114.71556 32563 ft 467 kts 108°
2026-05-05 02:54 33.59065 -114.67671 32100 ft 463 kts 108°
2026-05-05 02:54 33.58805 -114.63828 31704 ft 459 kts 108°
2026-05-05 02:54 33.58551 -114.60061 31339 ft 453 kts 108°
2026-05-05 02:54 33.58299 -114.56317 31018 ft 445 kts 108°
2026-05-05 02:55 33.58047 -114.52628 30654 ft 441 kts 108°
2026-05-05 02:55 33.57796 -114.48960 30236 ft 438 kts 107°
2026-05-05 02:55 33.57547 -114.45345 29820 ft 435 kts 107°
2026-05-05 02:55 33.57295 -114.41703 29377 ft 433 kts 106°
2026-05-05 02:56 33.57048 -114.38119 28941 ft 430 kts 106°
2026-05-05 02:56 33.56802 -114.34552 28541 ft 427 kts 106°
2026-05-05 02:56 33.56556 -114.30983 28070 ft 424 kts 106°
2026-05-05 02:56 33.56316 -114.27499 27694 ft 419 kts 106°
2026-05-05 02:57 33.56076 -114.24040 27335 ft 414 kts 106°
2026-05-05 02:57 33.55836 -114.20611 26954 ft 411 kts 106°
2026-05-05 02:57 33.55595 -114.17194 26491 ft 409 kts 106°
2026-05-05 02:57 33.55351 -114.13769 26055 ft 407 kts 105°
2026-05-05 02:58 33.55110 -114.10415 25586 ft 405 kts 104°
2026-05-05 02:58 33.54870 -114.07056 25103 ft 405 kts 104°
2026-05-05 02:58 33.54628 -114.03691 24665 ft 401 kts 105°
2026-05-05 02:58 33.54393 -114.00395 24272 ft 398 kts 104°
2026-05-05 02:59 33.54155 -113.97083 23901 ft 394 kts 104°
2026-05-05 02:59 33.53923 -113.93829 23464 ft 392 kts 104°
2026-05-05 02:59 33.53686 -113.90562 23064 ft 389 kts 104°
2026-05-05 02:59 33.53455 -113.87368 22712 ft 384 kts 104°
2026-05-05 03:00 33.53220 -113.84201 22334 ft 382 kts 104°
2026-05-05 03:00 33.52984 -113.81023 21973 ft 378 kts 103°
2026-05-05 03:00 33.52755 -113.77918 21659 ft 373 kts 102°
2026-05-05 03:00 33.52525 -113.74814 21277 ft 371 kts 102°
2026-05-05 03:01 33.52296 -113.71767 20853 ft 370 kts 102°
2026-05-05 03:01 33.52069 -113.68698 20448 ft 369 kts 102°
2026-05-05 03:01 33.51841 -113.65637 20107 ft 364 kts 101°
2026-05-05 03:01 33.51615 -113.62636 19722 ft 362 kts 100°
2026-05-05 03:02 33.51386 -113.59621 19325 ft 360 kts 99°
2026-05-05 03:02 33.51161 -113.56644 18917 ft 358 kts 99°
2026-05-05 03:02 33.50937 -113.53662 18516 ft 356 kts 98°
2026-05-05 03:02 33.50715 -113.50732 18110 ft 355 kts 98°
2026-05-05 03:03 33.50494 -113.47810 17709 ft 352 kts 98°
2026-05-05 03:03 33.50275 -113.44907 17331 ft 349 kts 98°
2026-05-05 03:03 33.50056 -113.42022 16934 ft 347 kts 98°
2026-05-05 03:03 33.49839 -113.39156 16556 ft 344 kts 98°
2026-05-05 03:04 33.49620 -113.36292 16174 ft 340 kts 98°
2026-05-05 03:04 33.49407 -113.33514 15825 ft 336 kts 98°
2026-05-05 03:04 33.49191 -113.30718 15487 ft 333 kts 98°
2026-05-05 03:04 33.48978 -113.27971 15123 ft 329 kts 98°
2026-05-05 03:05 33.48768 -113.25275 14801 ft 325 kts 98°
2026-05-05 03:05 33.48558 -113.22591 14464 ft 322 kts 99°
2026-05-05 03:05 33.48349 -113.19935 14113 ft 319 kts 99°
2026-05-05 03:05 33.48143 -113.17299 13764 ft 316 kts 99°
2026-05-05 03:06 33.47939 -113.14712 13423 ft 314 kts 99°
2026-05-05 03:06 33.47734 -113.12111 13064 ft 312 kts 99°
2026-05-05 03:06 33.47614 -113.09502 12700 ft 310 kts 94°
2026-05-05 03:06 33.47582 -113.06961 12338 ft 306 kts 98°
2026-05-05 03:07 33.47333 -113.04456 11980 ft 303 kts 102°
2026-05-05 03:07 33.47045 -113.01964 11629 ft 301 kts 102°
2026-05-05 03:07 33.46781 -112.99471 11281 ft 299 kts 101°
2026-05-05 03:07 33.46548 -112.97009 10936 ft 297 kts 100°
2026-05-05 03:08 33.46335 -112.94563 10580 ft 295 kts 99°
2026-05-05 03:08 33.46133 -112.92114 10233 ft 293 kts 99°
2026-05-05 03:08 33.45938 -112.89702 9871 ft 291 kts 99°
2026-05-05 03:08 33.45743 -112.87296 9539 ft 288 kts 99°
2026-05-05 03:09 33.45552 -112.84922 9192 ft 286 kts 99°
2026-05-05 03:09 33.45166 -112.82616 8814 ft 279 kts 115°
2026-05-05 03:09 33.44243 -112.80656 8447 ft 270 kts 130°
2026-05-05 03:09 33.43090 -112.78897 8103 ft 267 kts 133°
2026-05-05 03:10 33.41943 -112.77131 7741 ft 267 kts 126°
2026-05-05 03:10 33.41199 -112.75073 7294 ft 273 kts 111°
2026-05-05 03:10 33.40765 -112.72850 6851 ft 277 kts 97°
2026-05-05 03:10 33.40825 -112.70568 6459 ft 278 kts 84°
2026-05-05 03:11 33.41122 -112.68285 6077 ft 277 kts 82°
2026-05-05 03:11 33.41456 -112.66026 5696 ft 275 kts 82°
2026-05-05 03:11 33.41789 -112.63789 5319 ft 273 kts 81°
2026-05-05 03:11 33.42125 -112.61545 4918 ft 272 kts 81°
2026-05-05 03:12 33.42461 -112.59332 4699 ft 264 kts 81°
2026-05-05 03:12 33.42930 -112.57262 4523 ft 256 kts 71°
2026-05-05 03:12 33.43576 -112.55318 4357 ft 247 kts 68°
2026-05-05 03:12 33.44255 -112.53443 4203 ft 239 kts 68°
2026-05-05 03:13 33.44912 -112.51651 4051 ft 231 kts 67°
2026-05-05 03:13 33.45551 -112.49908 3835 ft 227 kts 67°
2026-05-05 03:13 33.46178 -112.48198 3662 ft 220 kts 67°
2026-05-05 03:13 33.46760 -112.46608 3635 ft 201 kts 67°
2026-05-05 03:14 33.47345 -112.45092 3356 ft 199 kts 61°
2026-05-05 03:14 33.48163 -112.43755 3081 ft 197 kts 51°
2026-05-05 03:14 33.49043 -112.42502 3016 ft 197 kts 49°
2026-05-05 03:14 33.49941 -112.41242 3010 ft 196 kts 49°
2026-05-05 03:15 33.50707 -112.39960 2976 ft 178 kts 70°
2026-05-05 03:15 33.50869 -112.38559 2991 ft 166 kts 98°
2026-05-05 03:15 33.50568 -112.37221 3020 ft 164 kts 113°
2026-05-05 03:15 33.50104 -112.35997 3013 ft 162 kts 122°
2026-05-05 03:16 33.49522 -112.34884 2993 ft 148 kts 130°
2026-05-05 03:16 33.48886 -112.34000 2811 ft 131 kts 145°
2026-05-05 03:16 33.48109 -112.33477 2448 ft 128 kts 169°
2026-05-05 03:16 33.47250 -112.33375 2104 ft 125 kts 188°
2026-05-05 03:17 33.46442 -112.33654 1835 ft 116 kts 217°
2026-05-05 03:17 33.45803 -112.34267 1610 ft 115 kts 223°
2026-05-05 03:17 33.45180 -112.34874 1449 ft 116 kts 219°
2026-05-05 03:17 33.44536 -112.35473 1302 ft 117 kts 220°
2026-05-05 03:18 33.43884 -112.36081 1166 ft 118 kts 219°
2026-05-05 03:18 33.43239 -112.36689 1027 ft 118 kts 219°
2026-05-05 03:18 33.42641 -112.37245 975 ft 90 kts 218°
2026-05-05 03:18 33.42306 -112.37563 971 ft 28 kts 218°
2026-05-05 03:19 33.42111 -112.37659 969 ft 0 kts 178°
2026-05-05 03:19 33.42110 -112.37659 969 ft 0 kts 178°
2026-05-05 03:19 33.42087 -112.37656 969 ft 5 kts 169°
2026-05-05 03:20 33.42074 -112.37608 969 ft 9 kts 50°
2026-05-05 03:20 33.42135 -112.37552 970 ft 12 kts 37°
2026-05-05 03:20 33.42216 -112.37476 971 ft 17 kts 38°
2026-05-05 03:20 33.42317 -112.37380 972 ft 19 kts 38°
2026-05-05 03:21 33.42422 -112.37282 973 ft 19 kts 38°
2026-05-05 03:21 33.42531 -112.37180 974 ft 19 kts 38°
2026-05-05 03:21 33.42639 -112.37079 976 ft 19 kts 38°
2026-05-05 03:21 33.42722 -112.37002 977 ft 10 kts 38°
2026-05-05 03:22 33.42780 -112.36942 977 ft 11 kts 65°
2026-05-05 03:22 33.42750 -112.36895 977 ft 6 kts 184°
2026-05-05 03:22 33.42730 -112.36881 977 ft 1 kts 96°
2026-05-05 03:22 33.42731 -112.36867 977 ft 0 kts 76°
2026-05-05 03:23 33.42733 -112.36865 977 ft 0 kts 40°